Lid_Strength_Index
9 11 12 11 10 10 11 12 13 11 9 10 11 11 10 9 8 8 8 7 6 6 5 7 7 7 6 6 6 6 7 7 6 7 7 7 6 6 5 5 4 3 3 4
11 12 10 9 10 10 11 12 12 11 10 9 11 11 10 9 9 8 8 7 7 6 5 6 8 8 6 7 7 6 6 7 6 5 7 7 7 7 6 5 5 4 4 4
12 10 9 9 10 10 11 12 12 12 11 11 13 14 12 10 9 8 7 6 6 6 6 6 10 8 8 7 7 6 6 7 6 5 6 7 6 7 7 7 6 5 4 4
10 9 10 10 11 10 13 9 10 11 12 15 13 16 14 12 10 9 8 7 7 7 5 6 10 9 8 7 7 6 6 6 6 6 6 6 6 8 7 7 6 6 5 5
10 10 11 11 10 10 11 10 11 11 13 15 15 16 14 12 12 10 9 7 6 7 6 6 10 9 8 7 7 7 6 6 6 6 6 7 6 7 7 7 7 6 6 5
9 7 8 9 9 8 8 11 12 13 14 17 14 15 15 13 11 10 8 7 6 6 6 5 8 9 8 8 7 6 6 6 6 6 6 7 7 7 7 7 7 6 6 6
11 10 9 8 10 9 11 13 17 17 18 18 14 15 13 11 9 8 8 7 6 6 6 6 7 9 9 8 7 6 6 6 6 5 5 6 7 6 6 7 6 6 6 6
13 14 10 9 10 12 12 12 17 19 19 17 14 16 12 10 9 8 7 7 6 6 6 6 5 8 8 8 7 7 6 6 5 5 5 5 6 6 6 6 5 5 6 6
13 13 9 9 9 10 12 13 11 15 16 17 16 14 10 10 9 8 8 8 7 6 6 6 6 7 8 8 7 7 6 6 5 6 5 6 6 5 5 5 5 5 6 6
11 14 10 9 9 10 11 10 14 15 19 20 17 16 14 12 10 10 9 8 7 6 6 6 6 5 7 7 6 6 6 6 6 6 5 5 6 5 5 5 5 5 6 7
10 12 13 9 11 12 12 13 13 13 15 18 19 16 12 11 9 9 8 7 7 6 6 5 5 5 7 7 7 7 7 6 6 6 5 6 6 6 5 5 5 5 6 7
10 12 14 13 10 9 10 12 12 16 16 16 16 16 11 10 9 9 8 8 8 6 5 5 4 5 6 7 7 7 6 6 6 5 5 7 6 6 5 5 5 5 6 7
10 13 16 15 12 11 11 11 12 13 14 16 17 15 11 10 9 9 9 9 8 7 6 6 5 5 5 6 6 6 6 6 6 6 6 6 7 7 6 5 6 5 7 7
8 13 12 15 15 12 14 12 12 12 16 15 15 14 12 11 10 11 10 10 9 7 6 6 6 5 4 5 6 6 6 6 6 7 6 7 6 6 6 5 6 6 7 8
10 14 13 12 11 11 11 11 12 13 13 14 13 14 12 12 12 10 8 7 7 7 6 6 6 5 5 5 5 5 6 6 5 7 7 8 7 6 6 6 6 7 7 8
10 14 13 14 12 12 12 11 11 12 13 13 14 14 11 10 9 9 9 8 8 7 7 6 6 5 5 5 5 5 5 6 6 6 7 7 7 7 7 8 7 8 8 9
12 13 14 15 13 13 15 13 12 12 12 12 14 12 10 10 10 9 9 9 8 8 7 7 7 5 4 4 5 6 6 7 6 6 7 6 7 8 8 8 8 8 9 9
12 13 15 16 14 20 13 11 11 11 11 10 10 10 9 9 9 8 8 9 9 8 7 7 7 7 5 4 4 6 6 7 7 7 7 7 8 8 9 9 9 9 9 10
11 13 16 16 17 15 13 11 11 12 12 10 10 9 9 8 8 9 8 8 8 8 7 7 7 6 6 4 5 6 7 7 7 8 8 8 8 9 10 9 9 10 10 11
11 11 13 16 17 18 14 11 10 10 14 9 10 10 10 10 12 11 8 8 8 7 7 7 7 6 6 5 5 6 7 7 6 6 7 8 8 9 10 10 10 11 11 12
14 15 15 17 16 15 12 10 9 14 14 10 10 10 10 11 11 9 9 9 8 8 7 7 7 7 7 6 6 7 7 7 6 7 7 8 9 9 8 9 10 11 12 13
14 15 17 16 16 17 10 10 13 12 10 9 10 10 10 10 10 10 10 10 9 8 7 6 7 7 7 6 6 7 7 8 7 7 8 8 9 8 9 11 11 12 13 13
14 12 14 13 14 11 10 10 10 9 9 10 10 10 10 11 12 11 11 11 11 10 9 7 7 6 6 6 6 7 7 7 8 7 8 9 8 9 10 11 12 12 12 14
12 10 11 11 12 13 12 11 9 9 10 10 9 10 11 12 12 12 12 12 12 11 10 8 8 7 6 6 5 5 6 7 8 8 9 10 9 10 10 10 11 12 12 13
12 11 12 13 12 12 12 12 12 12 11 11 12 12 12 13 13 13 13 12 12 10 10 9 8 8 7 6 6 6 6 7 8 9 9 10 10 11 11 10 11 11 11 12
12 12 12 13 10 12 13 12 11 12 12 12 11 11 11 11 11 11 11 10 10 9 9 9 8 8 7 7 6 6 6 7 7 9 9 10 11 12 11 12 14 13 12 12